SCP
0 0 1 1 1 1 1 1 1 1 1 1 1 1 1 0 0 0 0 0 0 0 0 0 0 0 0 0 0 0 0 0 0 0 0 0 0 0 0 0 0 0 0
0 1 1 1 2 2 1 2 1 1 1 1 1 1 0 0 0 0 0 0 0 0 0 0 0 0 0 0 0 0 0 0 0 0 0 0 0 0 0 0 0 0 0
1 1 2 2 2 2 2 2 2 1 1 1 1 1 0 0 0 0 0 0 0 0 0 0 0 0 0 0 0 0 0 0 0 0 0 0 0 0 0 0 0 0 0
2 2 3 3 3 2 2 2 2 1 1 1 1 1 0 0 0 0 0 0 0 0 0 0 0 0 0 0 0 0 0 0 0 0 0 0 0 0 0 0 0 0 0
2 2 3 3 3 3 2 2 1 1 1 1 1 1 0 0 0 0 0 0 0 0 0 0 0 0 0 0 0 0 0 0 0 0 0 0 0 0 0 0 0 0 0
1 2 3 3 3 2 2 1 1 1 1 1 1 0 0 0 0 0 0 0 0 0 0 0 0 0 0 0 0 0 0 0 0 0 0 0 0 0 0 0 0 0 0
1 1 2 2 2 2 2 1 1 0 0 0 0 0 0 0 0 0 0 0 0 0 0 0 0 0 0 0 0 0 0 0 0 0 0 0 0 0 0 0 0 0 0
1 1 1 1 1 1 1 1 0 0 0 0 0 0 0 0 0 0 0 0 0 0 0 0 0 0 0 0 0 0 0 0 0 0 0 0 0 0 0 0 0 0 0
0 0 1 1 1 1 0 0 0 0 0 0 0 0 0 0 0 0 0 0 0 0 0 0 0 0 0 0 0 0 0 0 0 0 0 0 0 0 0 0 0 0 0
0 0 0 0 0 0 0 0 0 0 0 0 0 0 0 0 0 0 0 0 0 0 0 0 0 0 0 0 0 0 0 0 0 0 0 0 0 0 0 0 0 0 0
0 0 0 0 0 0 0 0 0 0 0 0 0 0 0 0 0 0 0 0 0 0 0 0 0 0 0 0 0 0 0 0 0 0 0 0 0 0 0 0 0 0 0
0 0 0 0 0 0 0 0 0 0 0 0 0 0 0 0 0 0 0 0 0 0 0 0 0 0 0 0 0 0 0 0 0 0 0 0 0 0 0 0 0 0 0
0 0 0 0 0 0 0 0 0 0 0 0 0 0 0 0 0 0 0 0 0 0 0 0 0 0 0 0 0 0 0 0 0 0 0 0 0 0 0 0 0 0 0
0 0 0 0 0 0 0 0 0 0 0 0 0 0 0 0 0 0 0 0 0 0 0 0 0 0 0 0 0 0 0 0 0 0 0 0 0 0 0 0 0 0 0
0 0 0 0 0 0 0 0 0 0 0 0 0 0 0 0 0 0 0 0 0 0 0 0 0 0 0 0 0 0 0 0 0 0 0 0 0 0 0 0 0 0 0
0 0 0 0 0 0 0 0 0 0 0 0 0 0 0 0 0 0 0 0 0 0 0 0 0 0 0 0 0 0 0 0 0 0 0 0 0 0 0 0 0 0 0
0 0 0 0 0 0 0 0 0 0 0 0 0 0 0 0 0 0 0 0 0 0 0 0 0 0 0 0 0 0 0 0 0 0 0 0 0 0 0 0 0 0 0
0 0 0 0 0 0 0 0 0 0 0 0 0 0 0 0 0 0 0 0 0 0 0 0 0 0 0 0 0 0 0 0 0 0 0 0 0 0 0 0 0 0 0
-0 -0 0 0 0 0 0 0 0 0 0 0 0 0 0 0 0 0 0 0 0 0 0 0 0 0 0 0 0 0 0 0 0 0 0 0 0 0 0 0 0 0 0
-0 -0 0 0 0 0 0 0 0 0 0 0 0 0 0 0 0 0 0 0 0 0 0 0 0 0 0 0 0 0 0 0 0 0 0 0 0 0 0 0 0 0 0
0 0 0 0 0 0 0 0 0 0 0 0 0 0 0 0 0 0 0 0 0 0 0 0 0 0 0 0 0 0 0 0 0 0 0 0 0 0 0 0 0 0 0
0 0 0 0 0 0 -0 -0 -0 0 0 0 0 0 0 0 0 0 0 0 0 0 0 0 0 0 0 0 0 0 0 0 0 0 0 0 0 0 0 0 0 0 0
0 0 0 0 0 0 0 0 0 0 0 0 0 0 0 0 0 0 0 0 0 0 0 0 0 0 0 0 0 0 0 0 0 0 0 0 0 0 0 0 0 0 0
0 0 0 0 0 0 0 0 0 0 0 0 0 0 0 0 0 0 0 0 0 0 0 0 0 0 0 0 0 0 0 0 0 0 0 0 0 0 0 0 0 0 0
0 0 0 0 0 0 0 0 0 0 0 0 0 0 0 0 0 0 0 0 0 0 0 0 0 0 0 0 0 0 0 0 0 0 0 0 0 0 0 0 0 0 0
0 0 0 0 0 0 0 0 0 0 0 0 0 0 0 0 0 0 0 0 0 0 0 0 0 0 0 0 0 0 0 0 0 0 0 0 0 0 0 0 0 0 0
Wind_Speed
6 11 18 18 15 13 13 12 12 12 9 6 5 4 4 4 3 4 5 5 4 3 3 3 4 4 4 5 6 4 3 2 2 3 2 3 2 1 2 2 2 3 3
4 7 13 16 15 14 13 12 12 10 9 7 5 3 3 3 3 3 3 4 4 4 3 4 4 3 3 5 5 5 4 2 2 3 3 1 2 2 1 1 2 3 3
9 10 12 12 13 13 13 11 9 9 8 7 5 4 4 3 2 2 2 3 5 5 4 4 4 4 4 5 5 6 6 5 3 2 4 4 4 2 3 1 1 2 2
5 5 6 9 11 10 9 10 9 8 7 8 7 6 4 4 4 3 3 3 4 4 4 4 4 4 3 4 5 5 4 6 5 2 2 2 4 4 1 2 1 2 3
5 5 5 6 6 6 7 9 8 6 6 6 7 7 4 3 2 2 4 4 3 3 4 4 5 4 3 4 5 5 5 4 5 4 3 2 1 2 3 2 2 2 2
6 7 6 8 7 4 6 7 6 4 5 6 6 7 7 5 4 4 4 3 1 2 3 3 4 5 5 5 5 5 6 5 5 4 3 4 3 2 2 2 2 3 3
6 10 11 9 7 5 5 4 4 4 4 6 5 5 6 6 6 5 5 4 3 2 4 3 4 4 5 5 5 5 5 6 6 6 4 4 4 4 3 2 2 2 2
8 6 9 10 9 6 2 5 5 5 5 5 4 4 5 4 3 4 4 4 4 4 4 4 4 4 5 5 5 4 5 5 6 7 7 5 5 5 5 4 3 2 2
12 10 7 6 11 12 11 9 7 5 4 4 3 3 4 4 3 3 4 3 3 3 4 4 4 4 4 5 5 4 5 5 6 6 7 5 5 5 5 5 5 5 5
9 10 8 5 3 4 5 6 6 5 4 3 3 2 4 5 4 3 5 5 4 4 5 4 3 3 3 4 4 3 4 5 5 4 6 6 5 4 5 5 5 5 5
4 6 2 7 7 4 4 6 6 5 5 5 3 3 4 4 4 3 4 5 4 5 5 5 4 4 4 4 4 4 4 4 4 4 5 7 7 5 5 5 4 5 4
3 4 7 10 9 6 4 5 6 6 5 4 3 3 2 2 3 4 4 4 4 5 5 5 5 5 5 4 4 4 4 4 4 4 5 6 5 7 6 5 5 4 4
7 6 7 9 9 7 6 6 6 5 4 4 4 2 2 3 4 5 4 4 5 5 5 5 6 6 5 5 5 4 4 4 4 4 5 5 5 5 5 6 6 4 3
5 6 8 10 10 9 7 6 5 3 4 4 3 2 3 4 5 5 5 4 5 6 6 6 6 6 6 6 5 4 4 4 4 4 3 4 5 5 6 6 6 6 4
8 3 0 2 4 5 4 3 2 2 3 4 4 5 5 5 5 6 5 5 5 6 6 5 5 5 6 7 7 6 5 5 4 3 3 4 6 8 6 5 5 5 4
14 14 14 13 12 10 8 7 6 4 3 1 3 4 4 4 4 6 6 6 5 5 4 4 4 5 6 10 12 9 6 5 5 5 4 4 6 9 11 10 10 8 5
12 14 13 12 12 11 11 12 9 8 8 7 5 4 2 1 2 2 2 3 3 3 4 4 5 5 7 10 12 13 6 6 6 5 4 4 6 9 6 9 12 11 12
9 9 8 8 7 7 7 7 7 7 8 7 8 8 7 6 5 4 4 4 2 1 2 3 3 3 5 8 9 11 6 5 5 5 6 5 6 6 7 7 7 8 9
4 5 5 6 7 7 6 7 7 6 6 6 6 6 6 6 6 6 5 4 3 3 2 2 1 1 3 5 8 8 4 4 4 4 4 5 6 10 11 7 7 6 6
4 5 6 6 7 6 6 8 7 7 6 5 5 5 5 5 5 5 4 4 3 3 3 4 3 2 2 3 4 6 3 3 3 3 3 4 5 8 9 8 7 7 6
4 5 6 4 3 4 6 7 6 5 4 4 4 4 4 4 4 4 4 4 4 5 5 5 4 4 4 4 3 3 2 3 3 3 3 3 6 7 7 9 7 8 5
2 3 4 3 2 2 4 4 4 3 3 4 4 3 4 4 4 5 5 5 5 5 5 5 5 4 5 5 5 4 2 3 3 3 3 4 5 5 5 5 6 8 7
1 1 2 3 3 2 1 2 3 2 3 4 3 2 3 4 4 5 5 5 5 4 4 4 4 5 5 6 10 8 5 3 2 3 6 7 6 4 3 5 7 7 5
1 1 0 2 4 3 2 2 1 1 3 3 1 1 1 2 3 3 3 3 4 4 4 5 5 5 4 4 4 4 4 3 2 2 3 0 5 4 5 5 4 3 3
3 1 1 2 3 2 2 2 1 3 3 2 1 1 1 1 2 2 3 3 2 3 3 3 4 5 5 6 8 4 2 2 2 2 0 1 3 3 3 3 3 2 3
4 3 4 4 3 1 3 4 2 4 4 3 1 1 2 2 2 1 1 2 1 3 4 4 5 4 5 8 7 4 1 2 4 1 2 2 2 3 3 3 2 2 2
Wind_Direction
245 178 172 174 171 171 172 171 166 171 165 156 155 155 169 172 183 191 189 188 189 177 155 148 158 178 183 167 145 132 143 144 128 97 67 19 31 123 155 145 148 150 142
236 183 166 168 170 172 174 172 169 166 164 162 155 152 154 172 185 177 182 187 179 165 169 161 157 178 173 158 157 144 139 150 155 133 122 64 352 330 325 146 166 174 149
198 180 164 164 168 172 172 165 155 150 149 141 123 103 92 84 102 162 193 201 190 184 179 171 154 162 171 182 177 164 152 158 175 162 147 152 197 252 309 284 172 176 155
169 154 145 153 162 167 151 138 135 138 141 138 140 146 148 157 182 180 189 206 199 194 187 177 156 156 169 189 194 185 171 155 165 170 182 161 159 152 218 306 283 218 190
138 135 129 122 107 121 127 123 121 128 137 140 144 139 134 147 151 151 178 198 200 200 197 184 161 158 175 194 200 198 184 166 166 162 162 146 127 123 140 214 260 263 243
165 132 112 105 99 110 112 110 121 136 135 132 134 139 145 153 152 158 175 193 195 204 205 188 170 167 181 194 200 202 193 184 170 166 163 158 160 162 144 166 219 227 239
148 128 116 105 98 91 87 105 146 154 148 145 147 152 157 164 175 180 182 180 185 209 217 196 184 176 188 196 194 197 202 192 182 178 184 186 178 160 150 154 210 228 236
36 81 119 124 117 111 130 210 190 176 164 161 168 161 159 166 186 194 185 190 194 205 202 192 192 188 189 195 196 199 204 200 198 195 192 197 197 184 174 170 173 209 239
36 36 54 121 149 166 192 206 188 183 181 182 188 204 190 177 183 196 189 184 184 178 160 162 176 185 187 192 191 201 206 203 205 203 203 204 202 196 192 185 180 185 203
53 44 20 346 278 189 170 167 178 188 191 191 195 189 170 161 161 162 164 168 175 166 159 174 194 204 194 179 178 188 208 212 209 196 199 209 209 203 197 195 195 199 201
66 94 56 287 271 252 189 175 183 183 181 176 163 142 138 150 161 170 174 174 179 177 180 190 208 222 209 187 173 174 183 213 232 223 210 216 207 203 192 183 184 191 189
276 196 194 238 258 254 228 203 198 193 188 168 140 147 157 164 188 203 198 188 196 200 196 189 194 206 209 205 198 196 194 212 232 232 222 222 211 200 188 182 177 176 182
259 238 239 250 259 250 226 212 214 202 180 156 152 168 201 211 222 229 222 203 201 210 209 195 195 201 208 216 221 214 217 230 240 236 224 217 198 189 178 176 172 166 161
248 230 245 259 268 265 239 211 209 185 162 160 159 195 232 236 239 240 241 234 216 212 216 212 209 204 204 213 224 219 227 243 255 248 220 199 186 177 167 172 171 162 151
25 43 223 283 303 298 264 204 159 128 161 169 180 207 230 245 246 242 236 241 235 229 226 222 223 211 199 206 209 209 214 224 239 243 216 190 184 181 175 167 167 163 157
36 41 46 48 42 37 39 52 52 47 69 159 212 222 227 243 252 249 237 231 235 236 230 227 222 211 211 211 205 200 199 203 209 217 222 218 214 213 210 199 185 176 169
38 43 46 49 47 44 49 52 44 43 51 47 32 11 346 342 323 290 269 260 256 249 237 222 209 213 221 222 214 208 194 196 205 206 208 223 227 224 219 222 214 202 195
37 42 47 54 58 61 60 60 51 51 53 49 45 42 46 45 37 40 32 6 350 300 250 242 224 224 242 236 218 204 194 204 216 215 210 219 240 224 210 208 212 211 208
37 50 56 64 64 61 62 64 55 54 55 50 47 44 49 47 39 35 25 13 20 21 357 318 319 259 281 251 215 187 175 203 227 232 223 220 236 246 219 198 206 211 217
39 47 45 47 48 44 50 50 39 39 36 35 44 50 54 53 41 28 18 8 13 17 28 39 40 42 351 306 225 197 177 212 243 264 267 261 251 247 220 194 196 208 215
46 54 51 45 39 45 55 46 30 17 9 30 48 50 47 48 36 27 23 22 25 31 33 35 25 19 6 355 328 225 191 219 242 256 267 280 285 258 224 190 192 203 183
44 54 47 23 8 38 58 42 11 347 27 52 59 49 37 34 36 39 32 30 34 37 26 22 13 3 360 8 2 354 258 217 222 243 248 261 268 241 200 182 187 170 142
230 56 28 341 342 358 28 17 334 350 71 70 65 37 39 42 44 50 44 35 29 30 20 20 14 358 357 5 8 359 336 270 236 259 267 265 247 194 169 161 149 138 131
274 34 25 322 334 331 287 282 330 84 101 91 105 6 22 26 32 40 43 46 29 21 20 18 6 350 346 353 352 342 339 338 312 298 312 91 137 128 122 119 113 118 145
294 287 213 270 316 331 265 269 60 101 118 126 186 269 302 313 342 33 45 41 37 16 11 1 348 344 342 335 329 310 294 289 283 274 187 139 145 145 133 115 117 126 127
317 293 268 265 279 285 240 245 204 142 146 167 213 264 285 299 305 308 31 53 30 358 358 351 351 339 336 343 3 14 357 339 334 269 161 157 153 144 142 140 133 130 138